Location: Tierra Monte Subdivision
(35.2092°N, 106.4864°W)
Time: 21:34:45
(UTC+00:00)

Resurs 01 Rocket - Pass Details

Date: 30 March 2020
Orbit: 635 x 643 km, 98.0° (Epoch: 25 May)

Event Time Altitude Azimuth Distance (km) Brightness Sun altitude
Exits shadow 02:23:19 10° 63° (ENE) 2,015 3.7 -12.5°
Drops below altitude 10° 02:23:37 10° 59° (ENE) 2,023 3.8 -12.5°
Sets 02:28:09 0° 15° (NNE) 2,939 5.0 -13.4°
